Regional Weather Roundup
Issued by NWS Sioux Falls, SD

Home | Current Version | Previous Version | Text Only | Print | Product List | Glossary Off
Versions: 1 2 3 4 5 6 7 8 9 10 11 12 13 14 15 16 17 18 19 20 21 22 23 24 25 26 27 28 29 30 31 32 33 34 35 36 37 38 39 40 41 42 43 44 45 46 47 48 49 50

246
ASUS43 KFSD 200110
RWRFSD

WEATHER ROUNDUP FOR SE SOUTH DAKOTA/SW MINNESOTA/NW IOWA
NATIONAL WEATHER SERVICE SIOUX FALLS SD
700 PM CST FRI JAN 19 2018

NOTE: "FAIR" INDICATES FEW OR NO CLOUDS BELOW 12,000 FEET WITH NO
SIGNIFICANT WEATHER AND OR OBSTRUCTIONS TO VISIBILITY.


SDZ038>040-050-052>070-200200-
SOUTHEAST SOUTH DAKOTA

CITY           SKY/WX    TMP DP  RH WIND       PRES   REMARKS
BROOKINGS      CLOUDY    35  29  78 NW8       29.67R WCI  29
CHAMBERLAIN    CLOUDY    40  34  78 NW7       29.71S
HURON          CLOUDY    37  30  75 NW9       29.70R
MADISON        FAIR      34  34 100 NW10      29.68R WCI  26
MITCHELL       CLOUDY    36  32  85 W5        29.71R
SIOUX FALLS    CLOUDY    37  33  85 CALM      29.68R
WINNER         FAIR      39  31  72 W5        29.73R
YANKTON        CLOUDY    39  32  76 NW14      29.69R
$$

MNZ071-072-080-081-089-090-097-098-200200-
SOUTHWEST MINNESOTA

CITY           SKY/WX    TMP DP  RH WIND       PRES   REMARKS
FAIRMONT       CLOUDY    40  33  76 NW10      29.63R
JACKSON        CLOUDY    37  32  81 W8        29.64R
LUVERNE        CLOUDY    34  32  93 N3        29.67R
MARSHALL       CLOUDY    41  29  62 NW8       29.66R
MONTEVIDEO     CLOUDY    39  30  70 NW3       29.64R
PIPESTONE      CLOUDY    34  30  86 NW5       29.66R WCI  30
REDWOOD FALLS  CLOUDY    38  32  79 W6        29.62R
TRACY          CLOUDY    37  32  81 W6        29.64R
WINDOM         CLOUDY    36  21  55 W5        29.64R
WORTHINGTON    CLOUDY    36  32  85 W7        29.66R
$$

IAZ001>003-012>014-020>022-031-032-NEZ013-014-SDZ071-200200-
NORTHWEST IOWA

CITY           SKY/WX    TMP DP  RH WIND       PRES   REMARKS
CHEROKEE       CLOUDY    38  29  70 CALM      29.67R
DENISON        CLOUDY    37  28  70 SW8       29.70R
ESTHERVILLE    CLOUDY    36  32  85 W9        29.63R
LE MARS        CLOUDY    41  32  70 CALM      29.67R
ORANGE CITY    CLOUDY    37  34  87 W3        29.66R
SHELDON        CLOUDY    36  34  93 NW7       29.64R
SIOUX CITY     CLOUDY    43  33  68 NW10      29.68R
SPENCER        CLOUDY    35  30  82 W7        29.65R WCI  29
STORM LAKE     CLOUDY    41  28  60 W8        29.66R
$$

ABBREVIATIONS USED IN REMARKS
   TC - TEMPERATURE IN CELSIUS
  WCI - WIND CHILL INDEX
   HX - HEAT INDEX
  VSB - VISIBILITY





USA.gov is the U.S. government's official web portal to all federal, state and local government web resources and services.